Weather in Geychay - Udzhary

Azerbaijan     40°35′04″N   47°41′32″E
temp.,
°C
wind,
m/s
gust,
m/s
humid.,
%
clouds,
%
prec.,
mm/h
press.,
hPa
HPBL,
m
26 october, tue
tue2601:00+14wnw81137100 0.0 1024776
04:00+12nw354392 0.0 1025129
07:00+10e587399 0.0 1028324
10:00+13sse665492 0.0 1030948
13:00+15s4343100 0.1 10291708
16:00+14sse654699 0.3 10281397
19:00+11ese576414 0.4 1031653
22:00+10se4669100 0.4 1032604
27 october, wed
wed2701:00+10se236662 0.0 1032343
04:00+8ese11775 0.0 103211
07:00+7nw11795 0.0 103210
10:00+11w21575 0.0 1033539
13:00+14wsw22440 0.0 10301205
16:00+15wsw22390 0.0 10281291
19:00+12s11490 0.0 102810
22:00+11ene22521 0.0 102811
28 october, thu
thu2801:00+9nne12581 0.0 102711
04:00+8nw33620 0.0 102523
07:00+8nw33650 0.0 102530
10:00+12wnw34490 0.0 1025477
13:00+16wnw33370 0.0 1023993
16:00+17wnw22320 0.0 10221040
19:00+13nne11430 0.0 102310
22:00+12ene22460 0.0 102311
29 october, fri
fri2901:00+10ene11510 0.0 102310
04:00+9n11540 0.0 102210
07:00+8wnw12580 0.0 102310
10:00+14wnw11421 0.0 1024298
13:00+17wsw11340 0.0 1023988
16:00+18ssw113180 0.0 10221303
19:00+15ese333962 0.0 102323
22:00+12ese347899 0.0 102597
30 october, sat
sat3001:00+11ese117784 0.0 102613
04:00+10sw018114 0.0 102611
07:00+10w1181100 0.0 102811
10:00+13sw116999 0.0 1030351
13:00+11se2285100 0.9 1031174
16:00+11se2486100 2.4 1031282
19:00+11sse0192100 1.6 103394
22:00+11wnw2292100 3.3 1035129